Location: *
(38.9800°N, 16.0500°E)
Time: 05:40:09
(UTC+00:00)

STARLINK-1064 - Pass Details

Date: 07 April 2020
Orbit: 549 x 550 km, 53.0° (Epoch: 05 June)

Event Time Altitude Azimuth Distance (km) Brightness Sun altitude
Exits shadow 02:58:39 39° 261° (W) 843 4.0 -17.9°
Maximum altitude 02:59:58 61° 322° (NW) 642 3.8 -17.7°
Drops below altitude 10° 03:04:10 10° 43° (NE) 1,865 7.4 -16.9°
Sets 03:06:28 0° 47° (NE) 2,767 8.6 -16.5°
